Temperature
20 18 18 19 19 20 20 19 19 19 19 18 17 17 16 16 16 16 15 15 15 16 16 15 15 15 15 15 15 15 15 15 15 15 14 14 14 14 14 14 14 14 13 13
18 19 20 19 19 19 19 19 18 18 19 18 17 17 17 16 16 16 15 15 15 15 15 15 15 15 15 15 15 15 15 15 14 14 14 14 14 14 13 13 13 13 13 13
20 20 20 20 20 20 19 19 19 19 18 18 18 17 16 16 16 16 15 15 15 15 15 15 15 15 15 15 14 14 14 14 14 14 14 14 13 13 13 13 13 12 12 12
20 20 21 21 21 20 20 20 19 19 17 17 17 17 17 16 15 15 15 15 15 15 15 14 14 14 14 14 14 14 14 14 14 13 13 13 13 13 12 12 12 12 12 12
21 21 21 21 21 21 20 20 19 18 17 16 16 16 16 15 15 15 15 15 15 15 15 14 14 14 14 14 13 13 13 13 13 13 13 13 12 12 12 12 12 11 11 11
20 21 21 21 21 20 20 18 17 15 15 17 16 16 16 15 15 15 15 15 15 15 14 14 14 14 13 13 13 13 13 13 13 12 12 12 12 12 11 11 11 11 11 11
20 21 21 21 21 20 19 17 17 17 16 16 16 15 15 15 15 15 15 15 15 14 14 14 14 13 13 13 13 12 12 12 12 12 12 12 11 11 11 11 11 11 11 10
20 20 21 21 21 20 19 18 17 17 16 16 16 15 15 15 15 15 15 15 14 14 14 13 13 13 13 13 12 12 12 12 12 12 11 11 11 11 10 10 10 10 10 10
19 20 21 21 20 19 18 17 16 15 15 15 15 15 15 15 14 14 14 13 13 13 13 13 13 13 13 12 12 12 12 11 11 11 11 11 11 10 10 10 10 10 10 10
19 20 20 20 20 19 18 15 14 15 16 16 16 16 15 15 14 13 13 13 13 13 13 13 12 12 12 12 12 12 11 11 11 11 11 10 10 10 10 10 10 9 9 9
19 19 19 19 20 20 18 17 14 13 14 15 16 15 15 15 14 13 12 12 13 13 12 12 12 12 12 11 11 11 11 11 11 10 10 10 10 10 10 9 9 9 9 9
17 16 17 18 19 19 19 17 15 16 16 14 14 15 15 14 13 13 12 12 12 12 12 12 12 12 11 11 11 11 10 10 10 10 10 10 10 9 9 9 9 9 9 9
17 16 16 17 17 18 18 17 15 14 13 13 14 15 14 13 13 12 12 12 12 11 11 11 11 11 11 11 11 10 10 10 10 10 10 9 9 9 9 9 9 9 8 9
16 15 16 17 17 17 18 17 15 14 14 14 14 15 14 13 12 12 12 12 11 11 11 11 11 11 11 11 10 10 10 10 10 9 9 9 9 9 9 9 8 8 8 8
16 16 16 16 17 17 17 17 17 16 15 15 16 15 14 13 12 12 11 11 11 11 11 11 11 11 10 10 10 10 10 10 9 9 9 9 9 9 8 8 8 8 8 8
14 16 16 17 18 17 17 17 17 16 16 15 15 15 14 13 12 11 11 11 11 11 11 11 11 10 10 10 10 10 10 9 9 9 9 9 8 8 8 8 8 8 8 8
14 15 15 15 17 17 16 17 17 16 16 15 15 15 12 11 11 11 11 11 11 11 11 11 11 10 10 10 10 10 10 9 9 9 9 8 8 8 8 8 8 8 8 8
13 13 13 14 16 17 16 16 17 16 16 15 14 13 12 12 12 12 12 12 12 11 11 11 11 11 10 10 10 10 9 9 9 9 9 8 8 8 8 8 8 8 8 8
13 13 13 13 15 15 16 16 16 16 16 15 14 12 12 12 11 11 12 12 12 12 11 11 11 11 10 10 10 9 9 9 9 9 8 8 8 8 8 8 8 8 8 8
13 13 13 13 15 15 16 17 17 16 15 14 13 12 11 11 11 11 12 12 12 12 11 11 11 10 10 10 10 9 9 9 9 9 8 8 8 8 8 8 8 8 8 8
15 14 13 13 14 14 15 16 17 16 15 15 14 13 12 12 12 13 13 12 12 11 11 11 11 10 10 10 9 9 9 9 9 9 8 8 8 8 8 8 8 8 8 8
14 14 13 13 14 15 16 16 15 15 16 15 15 14 13 14 13 13 13 12 11 11 11 11 10 10 10 10 9 9 9 9 9 8 8 8 8 8 8 8 8 8 8 8
13 13 13 13 14 15 16 16 17 17 16 16 15 15 14 14 13 13 12 12 11 11 11 11 10 10 10 9 9 9 9 9 9 8 8 8 8 8 8 8 8 8 8 8
13 12 12 13 13 14 16 16 17 17 17 16 16 15 14 14 13 13 12 12 11 11 11 10 10 10 10 9 9 9 9 9 9 9 8 8 8 8 8 8 8 9 9 8
13 12 12 13 13 14 15 16 17 17 16 16 15 15 14 14 13 13 12 12 11 11 11 10 10 10 10 9 9 9 9 9 9 9 9 9 9 8 8 8 9 9 9 9
12 13 13 13 14 14 16 17 17 16 16 16 15 14 14 14 13 13 12 12 11 11 11 10 10 10 10 9 9 9 9 9 9 9 9 9 9 9 9 9 9 9 9 9
Wind_Speed
3 5 1 5 6 5 5 3 1 2 2 4 4 5 7 7 8 8 7 8 8 7 5 5 4 4 4 5 4 4 4 2 3 2 2 2 2 2 3 5 6 7 6 6
6 2 5 4 5 5 4 2 1 1 2 3 4 3 5 8 9 9 9 9 9 7 6 6 5 4 4 4 3 3 3 2 2 2 2 2 2 2 1 3 6 7 7 6
3 5 2 4 4 4 3 5 5 3 3 4 4 0 3 4 5 6 6 7 9 10 10 8 6 4 3 3 3 3 3 2 2 3 3 4 3 3 2 3 3 6 6 6
3 4 2 2 3 6 4 5 7 5 4 1 2 3 4 5 6 8 8 8 9 9 8 8 6 5 3 2 2 4 3 3 3 4 4 4 2 1 0 1 1 4 6 6
3 2 1 2 3 6 4 3 5 4 4 2 1 2 5 2 7 10 10 10 9 9 9 8 7 6 4 3 3 3 3 3 3 3 4 4 3 1 1 1 2 3 4 6
4 3 2 2 1 4 6 7 7 6 5 1 2 3 5 4 7 6 7 9 9 8 8 7 6 6 4 4 3 3 3 3 3 4 3 3 3 2 2 2 2 2 2 4
5 4 2 1 3 3 5 6 4 4 4 4 1 2 7 5 4 5 6 7 7 7 8 7 7 6 5 4 4 3 3 3 2 3 3 3 3 2 2 1 1 2 2 3
2 5 4 1 3 4 3 7 7 5 5 4 1 4 5 3 2 1 4 6 7 7 7 7 6 6 5 4 4 4 3 3 2 3 3 2 3 2 1 1 1 1 1 2
4 4 4 2 1 7 6 3 5 6 3 1 4 5 5 0 2 3 5 6 6 6 7 7 6 6 5 5 5 5 4 3 2 2 3 2 2 2 1 1 1 1 1 2
7 2 4 3 4 5 5 8 6 5 4 3 4 4 4 4 3 2 5 6 6 6 6 6 6 5 4 4 4 4 4 3 3 2 2 2 2 2 1 1 2 2 2 3
4 4 4 4 1 2 3 4 5 5 5 5 4 6 4 6 6 6 6 6 7 7 7 6 5 5 4 4 4 4 4 3 2 2 2 3 2 2 2 2 2 2 2 3
4 5 1 4 3 1 2 5 6 4 4 4 4 6 3 3 5 6 7 6 6 7 6 6 6 6 5 4 4 4 3 3 2 2 3 3 2 3 3 2 2 2 2 3
5 5 2 6 5 4 2 2 4 5 5 5 4 6 2 3 5 5 7 7 7 6 6 6 6 5 4 4 3 3 3 3 2 3 3 3 2 3 2 2 2 3 3 3
5 4 6 7 7 3 1 1 4 5 4 5 6 6 2 3 5 5 6 7 7 7 7 6 5 5 4 3 3 3 2 2 3 3 3 2 1 1 1 2 2 3 3 3
5 3 3 4 4 2 2 2 3 5 6 7 6 5 6 6 7 6 7 7 8 7 7 7 6 5 4 3 3 2 1 2 3 3 3 1 1 1 2 2 2 3 3 4
3 4 2 1 1 2 1 2 3 3 3 4 3 4 2 5 6 6 7 8 8 7 7 7 6 5 5 4 4 3 2 2 3 3 2 2 2 1 2 2 2 3 3 3
3 5 3 2 3 2 3 5 4 3 3 5 6 5 5 5 7 8 8 9 8 7 7 8 7 6 5 5 5 4 3 3 3 3 2 2 2 1 1 1 2 2 2 3
6 5 3 1 1 4 6 3 3 3 2 3 3 3 6 5 5 5 6 8 7 7 7 7 6 5 4 4 4 4 4 3 3 2 2 2 2 1 1 1 1 1 1 2
5 7 4 3 2 5 5 3 4 4 3 3 5 5 5 6 4 0 4 7 8 8 7 6 6 5 5 4 4 4 4 3 3 2 2 2 2 2 1 0 1 1 1 2
4 4 5 4 3 5 6 3 2 4 3 4 7 8 8 7 3 4 5 6 6 5 5 6 5 5 5 4 5 5 4 3 3 3 3 2 2 2 1 1 1 1 0 2
3 3 4 4 4 6 6 2 4 3 6 4 8 9 9 7 5 4 7 6 6 5 5 6 7 6 5 5 6 5 4 4 3 2 2 2 1 2 2 0 0 1 1 2
6 5 4 5 3 6 3 4 6 7 2 5 7 7 7 5 4 6 7 7 7 6 6 7 7 5 4 5 6 5 4 3 2 2 2 1 1 1 1 1 1 1 1 2
5 7 6 7 7 5 3 4 3 4 4 5 6 6 8 7 5 6 6 7 7 7 7 6 7 6 4 4 6 6 4 3 3 2 2 1 0 0 0 1 0 1 1 1
2 2 3 2 4 3 2 1 2 3 4 5 6 8 8 7 7 7 7 7 7 6 6 6 7 6 5 4 4 5 3 3 3 2 1 1 1 1 1 0 1 1 2 2
5 4 3 2 3 0 1 3 4 4 6 7 7 6 9 10 8 7 7 7 7 6 6 6 7 6 6 5 4 3 3 4 4 3 2 1 1 1 1 1 2 3 3 4
5 7 7 7 8 6 5 5 6 7 7 8 8 7 6 8 9 8 7 6 7 7 6 6 6 5 5 5 4 3 4 5 4 3 2 2 1 1 1 2 3 4 5 6
Wind_Direction
56 72 156 207 184 159 146 140 241 259 191 149 163 166 173 166 167 169 172 166 169 168 151 136 130 125 106 91 90 92 92 96 107 106 104 93 74 48 34 34 36 37 36 37
42 325 237 183 153 135 137 125 265 353 80 136 140 163 177 178 189 186 185 179 173 162 155 156 152 133 119 115 110 104 103 105 110 122 123 113 104 79 53 25 32 32 30 29
184 241 187 144 143 144 176 180 201 180 69 73 116 141 201 195 194 202 197 183 175 174 173 172 166 152 136 130 125 112 106 99 97 98 94 84 66 50 33 16 10 12 21 24
248 262 189 168 195 163 228 211 181 160 129 200 156 219 242 205 206 214 211 195 183 178 174 172 167 157 152 147 118 109 111 106 103 107 114 113 110 104 4 345 352 3 16 20
280 271 194 216 225 170 196 105 120 124 130 97 34 169 279 197 224 227 216 204 193 184 175 173 168 157 146 124 106 105 105 96 94 100 114 112 113 117 73 50 30 13 6 13
258 274 210 218 60 132 125 78 64 58 76 88 233 173 267 223 228 233 215 204 194 180 169 158 147 137 128 114 107 105 104 89 88 96 94 106 124 117 96 61 25 3 358 2
344 338 327 129 87 52 89 92 40 5 7 255 234 196 250 260 249 221 211 196 177 164 159 154 148 144 136 127 121 108 105 92 89 97 94 105 124 127 123 121 38 5 359 352
9 317 313 344 164 165 146 136 156 199 224 266 308 236 257 292 317 172 155 155 150 151 153 154 150 144 143 144 140 131 120 116 110 110 110 108 114 118 123 119 91 11 328 317
179 264 305 336 71 129 129 131 152 133 145 248 272 275 296 46 37 81 120 133 144 148 147 148 148 147 149 157 161 150 139 134 118 113 108 105 104 104 100 58 57 11 332 336
161 224 305 322 64 41 119 138 103 119 152 247 281 270 256 246 221 148 144 148 146 143 143 146 150 149 150 157 152 140 139 144 130 120 118 111 91 86 82 68 44 17 358 359
138 163 313 13 75 190 104 97 105 115 152 165 249 269 233 216 193 178 174 163 156 154 153 152 149 145 140 134 136 135 132 130 120 117 98 89 74 65 66 58 31 15 8 8
129 125 260 285 287 266 162 162 148 154 209 177 191 263 311 213 171 163 165 161 156 153 148 143 138 131 130 134 138 139 140 137 138 126 107 98 83 70 60 45 27 24 19 8
132 110 58 344 340 359 65 123 134 122 118 152 181 260 6 96 128 146 157 157 152 146 140 138 138 140 145 145 140 140 138 139 129 121 115 100 83 73 55 34 27 24 18 9
113 112 161 200 225 223 256 187 151 133 152 194 219 240 251 171 157 153 150 149 149 153 151 150 151 151 153 149 138 134 132 131 132 127 120 115 103 88 63 38 30 24 22 22
97 138 193 231 239 194 211 228 183 179 188 193 227 221 236 198 180 169 156 148 147 153 159 162 160 157 154 144 136 139 144 135 133 130 133 143 118 87 65 48 33 27 24 21
82 142 143 312 275 191 220 259 213 201 186 196 201 244 219 139 136 147 158 161 165 172 174 172 165 161 164 164 163 154 156 146 133 135 139 125 109 88 64 50 42 27 16 8
120 132 125 245 300 17 278 247 211 198 203 182 206 218 147 146 166 175 177 177 181 179 174 171 172 173 173 175 170 169 167 147 142 146 146 146 141 120 63 50 40 20 7 11
138 123 128 150 54 245 252 259 185 181 235 192 185 169 163 165 161 165 171 177 180 175 172 172 172 172 169 162 159 157 149 148 153 157 164 171 158 154 111 78 35 358 360 356
149 140 127 130 186 274 284 245 184 178 252 198 170 150 128 115 90 116 185 177 180 179 174 173 170 166 160 160 158 146 144 147 155 178 193 190 176 171 156 176 304 322 347 338
84 111 124 137 168 239 250 247 162 112 280 205 166 161 152 134 153 231 187 169 167 163 159 158 149 143 153 161 148 145 154 157 181 204 207 190 179 182 204 241 291 301 281 308
97 90 136 164 206 259 254 228 125 160 248 186 168 168 165 177 195 176 152 154 155 153 153 150 147 152 163 155 146 153 162 184 199 189 177 169 176 192 206 208 326 322 339 347
172 162 176 154 188 255 241 146 178 211 185 154 163 166 164 158 136 137 145 148 147 145 144 147 148 150 151 149 149 156 180 197 175 154 157 168 177 206 168 122 351 19 27 1
190 189 182 184 208 238 231 205 204 155 152 164 161 158 149 142 145 143 147 147 148 150 150 148 146 146 146 153 156 167 192 174 145 138 161 189 215 221 146 166 282 344 353 337
234 134 137 206 260 256 234 195 151 154 157 157 150 149 149 149 150 145 147 150 150 148 150 147 144 148 159 165 169 182 177 150 140 148 178 194 182 306 352 336 270 259 277 297
200 155 150 222 248 135 281 188 156 118 119 123 125 141 153 147 147 146 148 153 153 149 149 149 156 164 173 173 180 181 161 148 149 162 176 182 197 225 306 309 268 254 252 238
198 179 178 214 208 182 210 190 157 142 147 146 137 134 142 150 150 146 149 151 150 151 149 152 160 167 174 175 187 187 170 161 162 179 198 206 217 235 250 293 310 288 264 275
Height
1503 1508 1513 1511 1510 1511 1515 1520 1524 1522 1518 1521 1524 1526 1527 1527 1529 1531 1532 1534 1536 1537 1539 1540 1542 1543 1544 1545 1546 1547 1548 1549 1549 1549 1550 1551 1551 1551 1551 1551 1551 1550 1550 1549
1509 1511 1505 1505 1507 1511 1515 1521 1524 1521 1518 1521 1526 1527 1526 1527 1527 1528 1530 1532 1534 1535 1537 1539 1541 1542 1543 1544 1545 1546 1547 1547 1548 1548 1549 1549 1550 1550 1550 1550 1549 1549 1549 1548
1508 1506 1502 1504 1508 1512 1515 1519 1519 1521 1521 1522 1526 1531 1529 1528 1528 1529 1529 1530 1531 1533 1535 1537 1539 1541 1542 1544 1544 1545 1546 1547 1547 1548 1548 1548 1548 1549 1549 1549 1548 1548 1548 1547
1505 1502 1502 1504 1506 1508 1515 1509 1512 1517 1526 1533 1530 1540 1530 1527 1527 1526 1526 1528 1529 1531 1533 1535 1537 1539 1541 1543 1544 1544 1545 1546 1546 1547 1546 1547 1548 1548 1548 1548 1547 1547 1547 1546
1504 1500 1501 1503 1502 1503 1507 1506 1511 1518 1526 1534 1533 1539 1534 1527 1527 1523 1523 1525 1527 1529 1531 1533 1536 1538 1540 1542 1543 1544 1544 1545 1545 1545 1546 1546 1547 1547 1547 1547 1547 1547 1546 1545
1501 1497 1498 1498 1498 1500 1504 1511 1517 1525 1532 1541 1535 1540 1536 1528 1522 1519 1520 1522 1524 1527 1530 1532 1534 1536 1538 1540 1542 1543 1543 1544 1544 1544 1545 1546 1546 1547 1546 1546 1546 1545 1545 1544
1505 1500 1497 1496 1501 1503 1506 1521 1538 1540 1547 1544 1534 1537 1532 1519 1516 1516 1517 1519 1522 1525 1528 1530 1532 1535 1537 1539 1540 1541 1542 1543 1543 1543 1544 1545 1545 1546 1546 1546 1545 1545 1544 1543
1514 1515 1500 1497 1499 1505 1509 1516 1537 1546 1549 1544 1535 1536 1525 1516 1515 1514 1515 1517 1520 1523 1526 1529 1531 1534 1536 1538 1539 1540 1541 1542 1542 1543 1544 1545 1545 1545 1545 1545 1544 1544 1543 1542
1515 1514 1499 1496 1496 1500 1510 1517 1519 1535 1540 1544 1539 1530 1520 1515 1515 1515 1516 1518 1520 1523 1525 1528 1530 1533 1535 1536 1538 1539 1541 1542 1542 1543 1544 1544 1545 1545 1545 1544 1544 1543 1543 1542
1504 1511 1502 1498 1497 1501 1505 1513 1525 1534 1544 1546 1537 1532 1527 1517 1516 1516 1517 1518 1520 1523 1525 1527 1529 1532 1534 1535 1537 1539 1540 1541 1542 1543 1543 1544 1544 1544 1544 1544 1543 1543 1542 1541
1501 1511 1508 1503 1505 1506 1509 1515 1523 1533 1534 1543 1544 1535 1514 1512 1512 1514 1516 1518 1520 1523 1525 1527 1529 1531 1533 1535 1536 1538 1539 1540 1541 1542 1543 1543 1543 1543 1544 1544 1543 1542 1542 1541
1502 1512 1517 1509 1502 1501 1503 1509 1518 1527 1531 1535 1539 1533 1510 1509 1510 1512 1515 1518 1520 1522 1525 1527 1529 1531 1533 1534 1536 1537 1538 1540 1541 1542 1542 1543 1543 1543 1543 1543 1543 1542 1542 1540
1501 1512 1523 1520 1516 1507 1506 1508 1513 1520 1529 1537 1538 1528 1511 1510 1511 1513 1515 1517 1520 1522 1525 1527 1529 1531 1533 1534 1535 1537 1538 1539 1540 1542 1542 1543 1543 1543 1543 1543 1543 1542 1541 1540
1497 1510 1519 1523 1518 1510 1508 1508 1511 1517 1527 1530 1526 1518 1512 1511 1512 1513 1515 1517 1520 1522 1524 1526 1528 1530 1533 1534 1535 1536 1538 1539 1540 1541 1542 1543 1543 1543 1543 1543 1543 1542 1541 1540
1497 1509 1509 1509 1505 1505 1506 1506 1508 1512 1514 1519 1514 1513 1509 1508 1510 1512 1515 1517 1520 1522 1524 1526 1528 1530 1532 1534 1535 1536 1538 1539 1540 1541 1542 1543 1543 1543 1543 1543 1543 1542 1541 1540
1500 1507 1508 1508 1504 1504 1506 1504 1505 1506 1507 1509 1509 1510 1505 1507 1510 1512 1514 1516 1519 1521 1523 1525 1528 1530 1532 1533 1535 1537 1538 1539 1540 1541 1542 1542 1543 1543 1543 1543 1543 1542 1542 1541
1503 1507 1513 1516 1508 1505 1512 1504 1503 1503 1502 1504 1507 1506 1505 1507 1509 1510 1513 1515 1517 1519 1522 1524 1527 1529 1531 1533 1535 1536 1538 1539 1540 1541 1542 1543 1543 1543 1543 1543 1543 1543 1542 1541
1502 1509 1516 1517 1514 1519 1509 1497 1497 1500 1500 1500 1500 1502 1503 1505 1507 1510 1512 1514 1516 1519 1521 1524 1526 1529 1531 1533 1535 1537 1538 1539 1541 1541 1542 1543 1543 1543 1543 1543 1543 1543 1542 1542
1495 1504 1515 1521 1520 1515 1504 1497 1497 1499 1500 1497 1499 1502 1504 1506 1509 1511 1511 1513 1515 1518 1520 1523 1526 1529 1531 1533 1535 1537 1538 1539 1541 1542 1542 1543 1543 1543 1544 1543 1543 1543 1542 1542
1497 1500 1511 1518 1517 1518 1504 1493 1492 1497 1502 1496 1497 1500 1503 1505 1511 1510 1510 1512 1515 1517 1520 1523 1526 1528 1530 1533 1535 1536 1538 1539 1540 1541 1542 1543 1543 1543 1544 1543 1543 1543 1543 1542
1501 1505 1510 1515 1515 1509 1495 1491 1493 1505 1502 1493 1494 1497 1500 1502 1504 1506 1508 1511 1514 1517 1520 1522 1525 1528 1530 1532 1534 1536 1537 1539 1540 1541 1542 1543 1543 1543 1544 1544 1543 1543 1543 1542
1500 1505 1508 1512 1514 1509 1490 1490 1494 1494 1490 1490 1493 1495 1498 1500 1503 1505 1507 1510 1513 1516 1519 1522 1525 1527 1530 1532 1534 1536 1537 1539 1540 1541 1542 1543 1543 1544 1544 1544 1543 1543 1543 1542
1494 1495 1496 1499 1500 1490 1487 1487 1487 1488 1489 1490 1492 1494 1497 1500 1502 1505 1507 1510 1513 1516 1519 1522 1524 1527 1530 1532 1534 1535 1537 1539 1540 1541 1542 1543 1543 1544 1544 1544 1543 1543 1543 1542
1490 1489 1492 1493 1489 1486 1486 1486 1486 1487 1488 1490 1492 1494 1497 1499 1502 1505 1507 1510 1513 1516 1519 1522 1524 1527 1529 1531 1534 1535 1537 1539 1540 1541 1542 1542 1543 1543 1543 1543 1543 1543 1543 1542
1485 1488 1491 1490 1487 1485 1485 1485 1486 1487 1489 1491 1493 1495 1497 1500 1502 1505 1507 1510 1513 1516 1519 1522 1524 1527 1529 1532 1534 1535 1537 1539 1540 1541 1541 1542 1542 1543 1543 1543 1543 1543 1543 1543
1480 1483 1486 1486 1480 1482 1483 1484 1486 1487 1489 1491 1493 1496 1498 1500 1502 1505 1508 1511 1514 1516 1519 1522 1524 1527 1529 1532 1534 1536 1537 1538 1540 1540 1541 1542 1542 1543 1543 1543 1543 1543 1542 1542